Location: Austin
(30.3000°N, 97.7500°W)
Time: 07:32:59
(UTC-05:00)

Meteor 1-28 Rocket - Pass Details

Date: 16 June 2025
Orbit: 442 x 456 km, 97.6° (Epoch: 08 July)

Event Time Altitude Azimuth Distance (km) Brightness Sun altitude
Exits shadow 04:53:13 - 153° (SSE) 1,724 5.7 -17.8°
Reaches altitude 10° 04:53:32 10° 152° (SSE) 1,587 5.5 -17.7°
Maximum altitude 04:56:50 49° 77° (ENE) 593 3.8 -17.2°
Drops below altitude 10° 05:00:09 10° 1° (N) 1,591 6.2 -16.7°
Sets 05:02:13 0° 355° (N) 2,465 7.2 -16.3°
